[[{"header":{"parameterUnit":"m.s-1","parameterCategory":2,"la1":30.2991,"la2":30.254,"lo1":-89.0895,"lo2":-89.0444,"dy":0.0017,"dx":0.0017,"nx":28,"ny":28,"refTime":"2026-02-15T09:00:00:Z","depth":"0","parameterNumber":2,"parameterNumberName":"U-component_of_CURRENTS"},"data":[0,0,0,0,0,0,0,0,0,0,0,0,0,0,0,0,0,0,0,0,0,0,0,0,0,0,0,0,0,0,0,0,0,0,0,0,0,0,0,0,0,0,0,0,0,0,0,0,0,0,0,0,0,0,0,0,0,0,0.2109,0.2109,0,0.2149,0.215,0.215,0.2151,0.2151,0.2151,0.215,0.2152,0.2152,0.2153,0,0,0,0,0,0,0,0,0,0,0,0,0,0.2032,0.2033,0.2109,0.2109,0.211,0.2149,0.215,0.215,0.2151,0.2151,0.2151,0.215,0.2152,0.2152,0.2153,0,0,0,0,0,0,0,0,0,0,0,0,0,0.2066,0.2033,0.2109,0.2117,0.2118,0.2149,0.215,0.215,0.2151,0.2151,0.2151,0.215,0.2152,0.2152,0.2153,0.2165,0,0,0.2154,0.2154,0,0,0,0,0,0,0,0,0.2064,0.2068,0.2115,0.2117,0.2118,0.2147,0.2123,0.2154,0.2152,0.2137,0.215,0.215,0.2148,0.2149,0.2155,0.2165,0.2165,0.2154,0.2155,0.2155,0.2155,0,0,0,0,0,0,0,0.2062,0.2067,0.2123,0.2116,0.2118,0.2119,0.2123,0.2129,0.2142,0.2138,0.2139,0.2147,0.2149,0.2155,0.2155,0.2165,0.2154,0.2155,0.2155,0.2155,0.22,0.2201,0,0,0,0,0,0,0.2062,0.2065,0.2121,0.2124,0.2092,0.2121,0.2125,0.2136,0.2143,0.2144,0.2147,0.2147,0.2154,0.2155,0.2155,0.2189,0.2155,0.2155,0.2155,0.2199,0.22,0.2201,0,0,0,0,0,0,0.206,0.2067,0.212,0.2097,0.2104,0.2123,0.2135,0.2137,0.2146,0.2151,0.2151,0.2154,0.2154,0.2155,0.2169,0.2189,0.2155,0.2156,0.2198,0.22,0.2201,0.2245,0,0,0,0,0,0,0.2058,0.2066,0.2072,0.2097,0.2105,0.2144,0.2136,0.2139,0.2153,0.2153,0.2157,0.2156,0.2154,0.2168,0.2169,0.2189,0.2156,0.2197,0.2199,0.22,0.2242,0.2248,0.2252,0,0,0,0,0,0.2055,0.2067,0.2072,0.2079,0.2114,0.2145,0.2149,0.2159,0.2154,0.2163,0.2167,0.2156,0.218,0.2169,0.217,0.219,0.2196,0.2198,0.22,0.224,0.2247,0.2252,0,0,0,0,0,0,0.2034,0.207,0.2075,0.2097,0.2121,0.2146,0.2157,0.2162,0.2173,0.2172,0.2168,0.2169,0.219,0.2184,0.2172,0.2208,0.2186,0.2189,0.2216,0.2222,0.2227,0.2233,0.2157,0,0,0,0,0,0.2034,0.2054,0.2085,0.2103,0.2117,0.2137,0.2149,0.2159,0.2174,0.2178,0.2181,0.2186,0.22,0.2205,0.2213,0.2231,0.2245,0.2245,0.225,0.2254,0.226,0.2298,0.2307,0.2208,0.2208,0.2208,0,0,0.2031,0.2053,0.2064,0.21,0.2119,0.2146,0.2143,0.2169,0.2189,0.2177,0.2199,0.2204,0.2209,0.2233,0.2241,0.223,0.2293,0.2257,0.226,0.2264,0.2301,0.2311,0.232,0.2209,0.2209,0.2209,0,0,0.2037,0.2056,0.2076,0.21,0.2136,0.2153,0.2162,0.219,0.2201,0.2225,0.2225,0.2242,0.2255,0.2269,0.2276,0.2312,0.2318,0.2313,0.2344,0.2381,0.239,0.2398,0.2443,0.2454,0.2315,0.2315,0.2315,0,0.203,0.2062,0.2085,0.2113,0.2136,0.2157,0.2185,0.2204,0.2232,0.2249,0.2236,0.2277,0.2274,0.2317,0.2328,0.2324,0.2349,0.2321,0.2389,0.2396,0.2404,0.2448,0.246,0.2318,0.2317,0.2317,0.2317,0,0.2054,0.2081,0.2097,0.214,0.2166,0.2195,0.2229,0.2253,0.2265,0.2285,0.2325,0.2331,0.2357,0.2359,0.2353,0.2407,0.241,0.2392,0.2375,0.2416,0.246,0.2472,0.2321,0.232,0.232,0.2319,0,0,0.2035,0.21,0.2105,0.2132,0.2184,0.2209,0.2252,0.2299,0.2331,0.2353,0.2397,0.2417,0.2424,0.2432,0.2434,0.246,0.253,0.2448,0.2449,0.2496,0.2629,0.2651,0.2666,0.2526,0.2528,0.253,0.2644,0,0.2047,0.2097,0.213,0.218,0.221,0.2251,0.2288,0.2333,0.2368,0.2415,0.2438,0.2475,0.2452,0.2471,0.2497,0.2524,0.2561,0.2501,0.2579,0.2581,0.2598,0.268,0.2654,0.2755,0.2656,0.2658,0.2659,0,0.2059,0.2094,0.2139,0.2207,0.2224,0.2251,0.2323,0.2361,0.2433,0.2464,0.2513,0.2536,0.2593,0.2556,0.2638,0.2605,0.2622,0.2635,0.264,0.2652,0.2626,0.2694,0.278,0.2758,0.2677,0.2675,0.2674,0,0.2031,0.2101,0.2136,0.2158,0.2233,0.2259,0.2296,0.2367,0.2422,0.2498,0.2553,0.2611,0.2659,0.269,0.2729,0.269,0.2819,0.2766,0.2807,0.2809,0.2798,0.2795,0.2871,0.2824,0.2824,0.2824,0.2823,0,0.2031,0.2059,0.2122,0.214,0.2183,0.224,0.2296,0.2347,0.2443,0.2507,0.2572,0.2647,0.2694,0.2773,0.2778,0.2855,0.2866,0.2841,0.285,0.2814,0.2812,0.2797,0.2772,0.2828,0.2827,0.2826,0.2825,0,0.1992,0.2036,0.2077,0.2148,0.2169,0.2194,0.2293,0.234,0.2438,0.253,0.2565,0.2706,0.2809,0.2868,0.294,0.2936,0.2935,0.3002,0.2965,0.2968,0.2958,0.2935,0.2878,0.278,0.3065,0.3066,0.3067,0,0.1978,0.1994,0.2063,0.208,0.2107,0.216,0.2198,0.2312,0.2374,0.2559,0.2603,0.2762,0.2859,0.3018,0.3058,0.312,0.3001,0.3107,0.3016,0.2988,0.2969,0.2807,0.2714,0.3025,0.3026,0.3026,0.3027,0,0.1944,0.1964,0.1993,0.2031,0.2064,0.2118,0.2184,0.2242,0.2374,0.2483,0.2628,0.2734,0.2931,0.3019,0.3136,0.3153,0.3002,0.312,0.31,0.2967,0.2786,0.2685,0.2922,0.3032,0.3031,0.3031,0.3031,0.3031,0.1905,0.1911,0.1944,0.1975,0.2013,0.2053,0.207,0.2169,0.2275,0.2416,0.2564,0.2716,0.2944,0.3127,0.3123,0.3166,0.3049,0.3104,0.3089,0.2934,0.2803,0.3063,0.317,0.317,0.3171,0.3171,0.3171,0,0.1848,0.1861,0.189,0.1914,0.1924,0.1977,0.2043,0.2059,0.2136,0.2333,0.2462,0.2743,0.2917,0.3067,0.3235,0.317,0.2962,0.3095,0.287,0.2781,0.3056,0.3022,0.309,0.309,0.309,0.309,0.309,0.309,0.1816,0.1809,0.1827,0.1817,0.1835,0.1823,0.184,0.1891,0.2012,0.2203,0.2384,0.2565,0.2971,0.3288,0.3329,0.3228,0.2947,0.2854,0.2762,0.3009,0.3007,0.3005,0.2967,0.3023,0.3023,0.2377,0.2373,0.237]},{"header":{"parameterUnit":"m.s-1","parameterCategory":2,"la1":30.2991,"la2":30.254,"lo1":-89.0895,"lo2":-89.0444,"dy":0.0017,"dx":0.0017,"nx":28,"ny":28,"refTime":"2026-02-15T09:00:00:Z","depth":"0","parameterNumber":3,"parameterNumberName":"V-component_of_CURRENTS"},"data":[0,0,0,0,0,0,0,0,0,0,0,0,0,0,0,0,0,0,0,0,0,0,0,0,0,0,0,0,0,0,0,0,0,0,0,0,0,0,0,0,0,0,0,0,0,0,0,0,0,0,0,0,0,0,0,0,0,0,-0.0193,-0.0194,0,-0.0254,-0.0255,-0.0256,-0.0304,-0.0304,-0.0304,-0.0305,-0.0382,-0.0383,-0.0385,0,0,0,0,0,0,0,0,0,0,0,0,0,-0.0174,-0.0174,-0.0193,-0.0194,-0.0195,-0.0254,-0.0255,-0.0256,-0.0304,-0.0304,-0.0304,-0.0305,-0.0381,-0.0383,-0.0385,0,0,0,0,0,0,0,0,0,0,0,0,0,-0.0205,-0.0174,-0.0193,-0.0224,-0.0228,-0.0254,-0.0255,-0.0256,-0.0304,-0.0304,-0.0305,-0.0305,-0.0381,-0.0383,-0.0386,-0.0391,0,0,-0.0394,-0.0395,0,0,0,0,0,0,0,0,-0.0203,-0.0205,-0.0219,-0.0222,-0.0226,-0.027,-0.0276,-0.0302,-0.0303,-0.0276,-0.0305,-0.0305,-0.0345,-0.035,-0.0362,-0.0395,-0.0398,-0.0394,-0.0395,-0.0396,-0.0397,0,0,0,0,0,0,0,-0.0201,-0.0203,-0.0219,-0.022,-0.0224,-0.0254,-0.0259,-0.0282,-0.0308,-0.0279,-0.0282,-0.0286,-0.0347,-0.036,-0.0365,-0.0399,-0.0394,-0.0396,-0.0398,-0.0399,-0.045,-0.045,0,0,0,0,0,0,-0.0186,-0.0201,-0.0217,-0.0221,-0.0214,-0.0254,-0.0259,-0.0257,-0.0308,-0.0316,-0.0286,-0.0288,-0.0355,-0.0362,-0.0367,-0.0375,-0.0396,-0.0399,-0.04,-0.0451,-0.045,-0.045,0,0,0,0,0,0,-0.0186,-0.0187,-0.0214,-0.0212,-0.0217,-0.0253,-0.0251,-0.0258,-0.027,-0.0313,-0.0321,-0.029,-0.0356,-0.0364,-0.0385,-0.0378,-0.04,-0.0402,-0.0451,-0.0451,-0.045,-0.0391,0,0,0,0,0,0,-0.0185,-0.0186,-0.018,-0.021,-0.0216,-0.0222,-0.025,-0.0259,-0.0271,-0.0275,-0.0319,-0.0327,-0.0357,-0.0381,-0.0387,-0.0382,-0.0404,-0.0451,-0.0451,-0.045,-0.0393,-0.0389,-0.0385,0,0,0,0,0,-0.0184,-0.0167,-0.0179,-0.0181,-0.0206,-0.0221,-0.0227,-0.0257,-0.027,-0.027,-0.0302,-0.0325,-0.0383,-0.0382,-0.039,-0.0386,-0.0451,-0.0451,-0.045,-0.0395,-0.039,-0.0385,0,0,0,0,0,0,-0.0154,-0.0172,-0.0185,-0.0175,-0.0194,-0.0229,-0.0229,-0.025,-0.0275,-0.0277,-0.0322,-0.0331,-0.0349,-0.0374,-0.0372,-0.0401,-0.0422,-0.0423,-0.0377,-0.0372,-0.0368,-0.0351,-0.0407,0,0,0,0,0,-0.0144,-0.0138,-0.0163,-0.0156,-0.0161,-0.0195,-0.0205,-0.0222,-0.0248,-0.026,-0.0292,-0.0325,-0.0353,-0.0367,-0.0395,-0.0407,-0.0434,-0.0411,-0.0407,-0.0403,-0.0395,-0.0434,-0.0433,-0.0449,-0.0449,-0.0449,0,0,-0.013,-0.0139,-0.0136,-0.0149,-0.0167,-0.0166,-0.0202,-0.0208,-0.021,-0.0264,-0.0275,-0.0311,-0.0353,-0.037,-0.038,-0.039,-0.0411,-0.0402,-0.0399,-0.0393,-0.0433,-0.0432,-0.043,-0.0449,-0.0449,-0.0449,0,0,-0.0097,-0.0107,-0.009,-0.0102,-0.0119,-0.014,-0.0138,-0.0167,-0.0184,-0.0199,-0.024,-0.0269,-0.0309,-0.034,-0.036,-0.0349,-0.0388,-0.036,-0.0325,-0.0363,-0.0362,-0.0361,-0.0384,-0.0386,-0.0358,-0.0358,-0.0358,0,-0.008,-0.0062,-0.0089,-0.0077,-0.0079,-0.0122,-0.0106,-0.0128,-0.0163,-0.0171,-0.0193,-0.0257,-0.0294,-0.0318,-0.0318,-0.0339,-0.0363,-0.0339,-0.0357,-0.0357,-0.0357,-0.0381,-0.0384,-0.0355,-0.0355,-0.0355,-0.0356,0,-0.0037,-0.0024,-0.0014,-0.0014,-0.0021,-0.0013,-0.0044,-0.0055,-0.0081,-0.0108,-0.0137,-0.0194,-0.0231,-0.0252,-0.0283,-0.0303,-0.032,-0.0347,-0.0366,-0.0352,-0.0378,-0.0382,-0.0351,-0.0352,-0.0352,-0.0353,0,0,0.0006,0.0016,0.002,0.0035,0.0016,0.0019,0.0015,0.0001,0.0005,-0.0046,-0.0049,-0.0113,-0.0149,-0.0175,-0.0223,-0.0261,-0.0287,-0.03,-0.0303,-0.0316,-0.0362,-0.0371,-0.0376,-0.0319,-0.032,-0.032,-0.0376,0,0.0049,0.0092,0.0079,0.0116,0.0138,0.0101,0.0104,0.0083,0.0053,0.0037,-0.0033,-0.0056,-0.0119,-0.0134,-0.0183,-0.0261,-0.0296,-0.0269,-0.0379,-0.0382,-0.0387,-0.0381,-0.0388,-0.0438,-0.038,-0.0381,-0.0381,0,0.0097,0.0121,0.0168,0.0192,0.0197,0.0205,0.0206,0.0201,0.016,0.0137,0.0091,0.0039,-0.0024,-0.0078,-0.0203,-0.0183,-0.0263,-0.0328,-0.0332,-0.0363,-0.0399,-0.0446,-0.0448,-0.0628,-0.0388,-0.0387,-0.0387,0,0.0148,0.0185,0.0227,0.0234,0.0247,0.0257,0.0255,0.023,0.0247,0.0198,0.0207,0.0111,0.0078,-0.0041,-0.0175,-0.019,-0.0309,-0.0348,-0.043,-0.0431,-0.0469,-0.0473,-0.0653,-0.043,-0.043,-0.043,-0.043,0,0.0201,0.0236,0.0255,0.0278,0.033,0.0312,0.0353,0.0334,0.033,0.0362,0.0262,0.0269,0.0085,-0.0003,-0.0143,-0.0291,-0.0286,-0.0418,-0.0447,-0.0448,-0.0449,-0.0633,-0.0745,-0.0432,-0.0432,-0.0431,-0.0431,0,0.0252,0.0261,0.0316,0.0343,0.0356,0.0389,0.043,0.0463,0.0441,0.0479,0.0473,0.0391,0.0269,0.0092,-0.0097,-0.0231,-0.0492,-0.0436,-0.0416,-0.0442,-0.0689,-0.0796,-0.1011,-0.1081,-0.0538,-0.0538,-0.0539,0,0.0281,0.0315,0.0369,0.0408,0.0422,0.0469,0.051,0.0513,0.0562,0.0562,0.0597,0.0498,0.0449,0.0169,-0.0095,-0.0336,-0.0511,-0.05,-0.0536,-0.0701,-0.0843,-0.0923,-0.0972,-0.0563,-0.0564,-0.0565,-0.0565,0,0.034,0.0356,0.0403,0.0486,0.0538,0.0608,0.0667,0.073,0.0742,0.0776,0.0805,0.0766,0.0493,0.0247,-0.0091,-0.0279,-0.0644,-0.0517,-0.0706,-0.0891,-0.0974,-0.1054,-0.0521,-0.057,-0.0569,-0.0569,-0.0569,-0.0568,0.0383,0.043,0.0493,0.0576,0.0643,0.074,0.0814,0.0887,0.0976,0.1046,0.0983,0.0961,0.0576,0.0111,-0.0172,-0.0685,-0.069,-0.0836,-0.0953,-0.1018,-0.1094,-0.0557,-0.0628,-0.0628,-0.0628,-0.0628,-0.0628,0,0.0443,0.0498,0.0579,0.0681,0.0777,0.0795,0.0923,0.1005,0.1123,0.1184,0.1206,0.1005,0.0528,0.004,-0.0646,-0.103,-0.1181,-0.1259,-0.1394,-0.1421,-0.096,-0.0967,-0.1094,-0.1093,-0.1093,-0.1093,-0.1093,-0.1093,0.0475,0.0569,0.0616,0.0783,0.0857,0.0994,0.1075,0.1186,0.127,0.135,0.1345,0.13,0.092,-0.0364,-0.1246,-0.147,-0.175,-0.184,-0.1955,-0.1669,-0.1639,-0.161,-0.1643,-0.1909,-0.191,-0.2355,-0.236,-0.2364]}],[{"header":{"parameterUnit":"m.s-1","parameterCategory":2,"la1":30.2991,"la2":30.254,"lo1":-89.0895,"lo2":-89.0444,"dy":0.0017,"dx":0.0017,"nx":28,"ny":28,"refTime":"2026-02-15T09:00:00:Z","depth":"2","parameterNumber":2,"parameterNumberName":"U-component_of_CURRENTS"},"data":[0,0,0,0,0,0,0,0,0,0,0,0,0,0,0,0,0,0,0,0,0,0,0,0,0,0,0,0,0,0,0,0,0,0,0,0,0,0,0,0,0,0,0,0,0,0,0,0,0,0,0,0,0,0,0,0,0,0,0.1996,0.1997,0,0.2036,0.2036,0.2037,0.2042,0.2041,0.2041,0.2041,0.2046,0.2047,0.2047,0,0,0,0,0,0,0,0,0,0,0,0,0,0.1922,0.1923,0.1996,0.1997,0.1998,0.2036,0.2036,0.2037,0.2042,0.2041,0.2041,0.2041,0.2046,0.2047,0.2047,0,0,0,0,0,0,0,0,0,0,0,0,0,0.1955,0.1924,0.1996,0.2006,0.2008,0.2036,0.2036,0.2037,0.2042,0.2041,0.2041,0.2041,0.2046,0.2047,0.2047,0.2056,0,0,0.2049,0.2049,0,0,0,0,0,0,0,0,0.1953,0.1958,0.2004,0.2006,0.2008,0.2036,0.2012,0.2042,0.2042,0.2027,0.2041,0.2041,0.2041,0.2042,0.2048,0.2056,0.2056,0.2049,0.2049,0.2049,0.2049,0,0,0,0,0,0,0,0.1951,0.1956,0.201,0.2005,0.2007,0.2008,0.2012,0.2018,0.2033,0.2028,0.2029,0.2037,0.2041,0.2047,0.2048,0.2056,0.2049,0.2049,0.2049,0.2049,0.2095,0.2096,0,0,0,0,0,0,0.1951,0.1954,0.2009,0.2011,0.1982,0.201,0.2015,0.2025,0.2033,0.2035,0.2037,0.2037,0.2046,0.2047,0.2048,0.2084,0.2049,0.2049,0.205,0.2094,0.2095,0.2096,0,0,0,0,0,0,0.195,0.1956,0.2007,0.1985,0.1992,0.2012,0.2023,0.2026,0.2037,0.2041,0.2042,0.2047,0.2046,0.2047,0.2063,0.2083,0.205,0.205,0.2093,0.2094,0.2096,0.214,0,0,0,0,0,0,0.1947,0.1955,0.1963,0.1985,0.1993,0.2031,0.2024,0.2027,0.2043,0.2044,0.2049,0.2049,0.2046,0.2062,0.2063,0.2083,0.205,0.2092,0.2093,0.2095,0.2138,0.2143,0.2148,0,0,0,0,0,0.1945,0.1957,0.1963,0.197,0.2003,0.2031,0.2036,0.2047,0.2044,0.2055,0.2059,0.205,0.2074,0.2063,0.2064,0.2085,0.2091,0.2093,0.2095,0.2135,0.2142,0.2148,0,0,0,0,0,0,0.1927,0.196,0.1966,0.1988,0.2011,0.2033,0.2046,0.2052,0.2064,0.2065,0.2061,0.2062,0.2084,0.2078,0.2067,0.2103,0.2081,0.2083,0.2111,0.2117,0.2122,0.2128,0.2051,0,0,0,0,0,0.1928,0.1948,0.1976,0.1994,0.2008,0.2027,0.204,0.205,0.2065,0.207,0.2074,0.208,0.2094,0.2099,0.2107,0.2126,0.2138,0.214,0.2145,0.215,0.2155,0.2191,0.22,0.2103,0.2103,0.2103,0,0,0.1925,0.1947,0.1957,0.1992,0.2011,0.2036,0.2034,0.206,0.208,0.2069,0.2093,0.2098,0.2103,0.2127,0.2136,0.2124,0.2186,0.2152,0.2156,0.2159,0.2194,0.2203,0.2212,0.2104,0.2104,0.2104,0,0,0.1933,0.1952,0.1972,0.1995,0.203,0.2046,0.2055,0.2083,0.2095,0.2119,0.212,0.2138,0.2151,0.2164,0.2171,0.2208,0.2212,0.221,0.2241,0.2275,0.2283,0.2291,0.2332,0.2343,0.2212,0.2212,0.2212,0,0.1928,0.1959,0.1981,0.2008,0.203,0.2051,0.2078,0.2097,0.2124,0.2142,0.2131,0.2173,0.2171,0.2212,0.2223,0.222,0.2243,0.2217,0.2282,0.229,0.2297,0.2337,0.2349,0.2214,0.2214,0.2214,0.2213,0,0.1951,0.1978,0.1994,0.2035,0.206,0.2089,0.2121,0.2146,0.216,0.2179,0.222,0.2226,0.2253,0.2255,0.2249,0.2302,0.2305,0.2286,0.2268,0.2309,0.2349,0.236,0.2218,0.2217,0.2216,0.2215,0,0,0.1935,0.1997,0.2003,0.2028,0.2079,0.2102,0.2144,0.219,0.2223,0.2246,0.229,0.231,0.2319,0.2327,0.2329,0.2354,0.242,0.2343,0.2343,0.2386,0.2512,0.2521,0.2534,0.2417,0.2419,0.242,0.2526,0,0.1947,0.1996,0.2027,0.2075,0.2105,0.2144,0.2181,0.2224,0.2259,0.2306,0.2329,0.2367,0.2346,0.2367,0.2391,0.2416,0.245,0.2394,0.2464,0.2466,0.247,0.2547,0.2352,0.2431,0.2536,0.2538,0.2539,0,0.1959,0.1993,0.2037,0.2102,0.2119,0.2146,0.2217,0.2254,0.2324,0.2356,0.2404,0.2428,0.2483,0.2449,0.2525,0.2494,0.251,0.252,0.2524,0.2523,0.2495,0.2403,0.2446,0.2558,0.2556,0.2555,0.2554,0,0.1935,0.2002,0.2036,0.2057,0.2129,0.2155,0.2193,0.2263,0.2315,0.2392,0.2445,0.2501,0.2548,0.2576,0.2611,0.2576,0.2693,0.2643,0.2669,0.267,0.2513,0.2497,0.2697,0.2697,0.2696,0.2696,0.2696,0,0.1935,0.1963,0.2024,0.2042,0.2086,0.214,0.2197,0.2247,0.2341,0.2403,0.2466,0.2538,0.2583,0.2655,0.2657,0.2721,0.2738,0.27,0.2706,0.2525,0.251,0.2615,0.2604,0.27,0.2699,0.2698,0.2698,0,0.19,0.1942,0.1983,0.2052,0.2073,0.21,0.2199,0.2244,0.234,0.2429,0.2464,0.2596,0.2689,0.2742,0.2806,0.2796,0.2836,0.2847,0.2643,0.2624,0.2775,0.2765,0.2888,0.2889,0.289,0.2891,0.2892,0,0.1887,0.1903,0.1971,0.199,0.2017,0.2072,0.211,0.222,0.228,0.2456,0.2498,0.2646,0.2728,0.2864,0.2872,0.2916,0.2906,0.275,0.2641,0.2806,0.2799,0.2787,0.2776,0.245,0.2447,0.2445,0.2443,0,0.1856,0.1876,0.1905,0.1945,0.198,0.2032,0.2099,0.2154,0.2282,0.2383,0.2515,0.2608,0.2761,0.274,0.2826,0.2808,0.2727,0.2707,0.2938,0.2442,0.2405,0.2394,0.2395,0.2422,0.2424,0.2426,0.2427,0.2428,0.182,0.1827,0.1861,0.1894,0.1933,0.1971,0.1989,0.2079,0.2175,0.2286,0.2428,0.2495,0.257,0.2614,0.257,0.2538,0.2705,0.2565,0.2567,0.2572,0.2513,0.2481,0.2502,0.2504,0.2506,0.2508,0.251,0,0.1765,0.1781,0.181,0.1837,0.1845,0.19,0.1964,0.1963,0.2025,0.2155,0.2252,0.215,0.2202,0.2256,0.22,0.2244,0.216,0.2137,0.199,0.2016,0.2039,0.1944,0.1786,0.1783,0.178,0.1778,0,0,0.1734,0.1728,0.1746,0.1737,0.176,0.1743,0.1759,0.1775,0.1838,0.1863,0.1895,0.2094,0.2213,0.1951,0.1958,0.1853,0.1899,0.1789,0.2384,0.2238,0.2255,0.2324,0.2217,0,0,0,0,0]},{"header":{"parameterUnit":"m.s-1","parameterCategory":2,"la1":30.2991,"la2":30.254,"lo1":-89.0895,"lo2":-89.0444,"dy":0.0017,"dx":0.0017,"nx":28,"ny":28,"refTime":"2026-02-15T09:00:00:Z","depth":"2","parameterNumber":3,"parameterNumberName":"V-component_of_CURRENTS"},"data":[0,0,0,0,0,0,0,0,0,0,0,0,0,0,0,0,0,0,0,0,0,0,0,0,0,0,0,0,0,0,0,0,0,0,0,0,0,0,0,0,0,0,0,0,0,0,0,0,0,0,0,0,0,0,0,0,0,0,-0.0072,-0.0073,0,-0.0131,-0.0132,-0.0132,-0.018,-0.018,-0.0181,-0.0181,-0.0254,-0.0256,-0.0257,0,0,0,0,0,0,0,0,0,0,0,0,0,-0.0053,-0.0053,-0.0072,-0.0073,-0.0073,-0.0131,-0.0132,-0.0133,-0.018,-0.018,-0.0181,-0.0181,-0.0254,-0.0256,-0.0257,0,0,0,0,0,0,0,0,0,0,0,0,0,-0.0082,-0.0053,-0.0072,-0.0103,-0.0106,-0.0131,-0.0132,-0.0133,-0.018,-0.018,-0.0181,-0.0181,-0.0253,-0.0255,-0.0258,-0.0262,0,0,-0.0265,-0.0266,0,0,0,0,0,0,0,0,-0.0081,-0.0083,-0.0098,-0.0101,-0.0105,-0.0147,-0.0152,-0.0176,-0.018,-0.0153,-0.0181,-0.0182,-0.0218,-0.0224,-0.0235,-0.0265,-0.0268,-0.0265,-0.0267,-0.0268,-0.0268,0,0,0,0,0,0,0,-0.0078,-0.0081,-0.0097,-0.0098,-0.0102,-0.0131,-0.0136,-0.0157,-0.0183,-0.0156,-0.0159,-0.0163,-0.0221,-0.0233,-0.0237,-0.0269,-0.0265,-0.0267,-0.0269,-0.027,-0.0319,-0.0319,0,0,0,0,0,0,-0.0065,-0.0079,-0.0095,-0.0099,-0.0092,-0.0131,-0.0136,-0.0134,-0.0183,-0.0191,-0.0163,-0.0165,-0.0229,-0.0235,-0.024,-0.0249,-0.0268,-0.027,-0.0271,-0.0319,-0.0319,-0.0319,0,0,0,0,0,0,-0.0064,-0.0066,-0.0093,-0.009,-0.0095,-0.013,-0.0128,-0.0135,-0.0148,-0.0188,-0.0196,-0.0168,-0.0229,-0.0237,-0.0257,-0.0252,-0.0271,-0.0273,-0.0319,-0.0319,-0.0319,-0.0265,0,0,0,0,0,0,-0.0063,-0.0065,-0.006,-0.0088,-0.0094,-0.0101,-0.0128,-0.0136,-0.0149,-0.0153,-0.0195,-0.0203,-0.023,-0.0253,-0.0259,-0.0256,-0.0275,-0.0319,-0.0319,-0.0319,-0.0267,-0.0263,-0.026,0,0,0,0,0,-0.0062,-0.0047,-0.0059,-0.0061,-0.0086,-0.01,-0.0106,-0.0134,-0.0148,-0.0149,-0.0179,-0.0201,-0.0256,-0.0254,-0.0262,-0.0259,-0.0319,-0.0319,-0.0319,-0.0269,-0.0264,-0.026,0,0,0,0,0,0,-0.0036,-0.0052,-0.0065,-0.0056,-0.0075,-0.0107,-0.0109,-0.0129,-0.0154,-0.0157,-0.0198,-0.0207,-0.0224,-0.0248,-0.0245,-0.0273,-0.0292,-0.0293,-0.0251,-0.0247,-0.0244,-0.0228,-0.0277,0,0,0,0,0,-0.0027,-0.0021,-0.0045,-0.0038,-0.0044,-0.0076,-0.0086,-0.0104,-0.0129,-0.014,-0.0171,-0.0202,-0.0228,-0.0242,-0.0267,-0.0279,-0.0305,-0.0283,-0.028,-0.0276,-0.0269,-0.0307,-0.0306,-0.0318,-0.0318,-0.0318,0,0,-0.0014,-0.0023,-0.002,-0.0033,-0.005,-0.0049,-0.0084,-0.0091,-0.0093,-0.0143,-0.0155,-0.0189,-0.0228,-0.0244,-0.0254,-0.0263,-0.0286,-0.0276,-0.0273,-0.0267,-0.0307,-0.0305,-0.0304,-0.0317,-0.0317,-0.0317,0,0,0.0017,0.0006,0.0022,0.0011,-0.0006,-0.0025,-0.0024,-0.0053,-0.007,-0.0085,-0.0123,-0.0151,-0.0189,-0.0218,-0.0237,-0.0227,-0.0265,-0.0238,-0.0206,-0.0243,-0.0242,-0.0242,-0.0267,-0.027,-0.0236,-0.0236,-0.0236,0,0.0031,0.0048,0.0023,0.0034,0.0032,-0.001,0.0006,-0.0016,-0.0049,-0.0058,-0.008,-0.0141,-0.0176,-0.0198,-0.0199,-0.0218,-0.0243,-0.0218,-0.0238,-0.0238,-0.0239,-0.0265,-0.0268,-0.0233,-0.0234,-0.0234,-0.0234,0,0.0072,0.0084,0.0093,0.0093,0.0087,0.0093,0.0064,0.0053,0.0026,0.0,-0.0029,-0.0083,-0.0118,-0.0138,-0.0167,-0.0188,-0.0205,-0.0228,-0.0246,-0.0234,-0.0263,-0.0267,-0.023,-0.023,-0.0231,-0.0232,0,0,0.0111,0.0122,0.0124,0.0139,0.0121,0.0124,0.0119,0.0106,0.0108,0.0058,0.0054,-0.0007,-0.0043,-0.0067,-0.0113,-0.0149,-0.0178,-0.0187,-0.019,-0.0206,-0.0253,-0.0266,-0.0273,-0.0208,-0.0208,-0.0209,-0.0269,0,0.0151,0.0192,0.0181,0.0216,0.0236,0.0201,0.0203,0.0183,0.0153,0.0136,0.0069,0.0045,-0.0014,-0.003,-0.0077,-0.0152,-0.0188,-0.0159,-0.0268,-0.027,-0.0279,-0.0278,-0.0259,-0.0312,-0.0274,-0.0275,-0.0275,0,0.0196,0.022,0.0264,0.0287,0.0292,0.0299,0.0299,0.0294,0.0253,0.023,0.0183,0.0133,0.0071,0.002,-0.0101,-0.0081,-0.0159,-0.0221,-0.0226,-0.0258,-0.0292,-0.032,-0.0321,-0.0283,-0.0282,-0.0282,-0.0281,0,0.0243,0.0279,0.0319,0.0326,0.0339,0.0347,0.0346,0.032,0.0335,0.0285,0.0292,0.0199,0.0165,0.005,-0.0081,-0.0092,-0.0213,-0.0246,-0.0329,-0.0331,-0.0346,-0.0348,-0.0327,-0.0327,-0.0327,-0.0327,-0.0327,0,0.0293,0.0326,0.0345,0.0367,0.0416,0.0398,0.0437,0.0417,0.0412,0.0439,0.0343,0.0345,0.017,0.0082,-0.0052,-0.0199,-0.0193,-0.032,-0.0349,-0.0326,-0.0326,-0.0327,-0.0327,-0.0329,-0.0329,-0.0328,-0.0328,0,0.0341,0.035,0.0402,0.0428,0.044,0.0471,0.0509,0.0539,0.0516,0.0548,0.0542,0.0457,0.0334,0.0164,-0.002,-0.0147,-0.0295,-0.0347,-0.0303,-0.0326,-0.0396,-0.0391,-0.0449,-0.045,-0.0451,-0.0452,-0.0452,0,0.0368,0.04,0.0452,0.0488,0.0501,0.0546,0.0584,0.0587,0.0631,0.0624,0.0655,0.0551,0.0496,0.022,-0.003,-0.0262,-0.0291,-0.0393,-0.0419,-0.0387,-0.0409,-0.0403,-0.0398,-0.0417,-0.0417,-0.0418,-0.0418,0,0.0424,0.0438,0.0483,0.0562,0.061,0.0677,0.0732,0.0789,0.0798,0.0825,0.0842,0.0796,0.0529,0.029,-0.0036,-0.0199,-0.036,-0.0405,-0.0388,-0.0385,-0.0361,-0.0381,-0.0376,-0.042,-0.042,-0.0419,-0.0419,-0.0419,0.0464,0.0508,0.0568,0.0645,0.071,0.08,0.0869,0.0932,0.1011,0.1058,0.0995,0.0929,0.0645,0.0232,-0.006,-0.0373,-0.0364,-0.0467,-0.0464,-0.0462,-0.0444,-0.0422,-0.0488,-0.0488,-0.0489,-0.0489,-0.0489,0,0.052,0.0571,0.0648,0.0744,0.0832,0.0852,0.097,0.1037,0.1137,0.116,0.1162,0.0906,0.0618,0.0295,-0.0165,-0.0437,-0.0465,-0.0522,-0.0491,-0.0487,-0.0484,-0.0467,-0.0518,-0.0518,-0.0519,-0.052,0,0,0.0549,0.0638,0.0682,0.0836,0.0906,0.1031,0.1106,0.1191,0.1239,0.1271,0.1232,0.1131,0.0728,0.0403,0.0019,-0.0245,-0.0304,-0.0304,-0.0253,-0.0168,-0.0162,-0.0428,-0.0394,0,0,0,0,0]}],[{"header":{"parameterUnit":"m.s-1","parameterCategory":2,"la1":30.2991,"la2":30.254,"lo1":-89.0895,"lo2":-89.0444,"dy":0.0017,"dx":0.0017,"nx":28,"ny":28,"refTime":"2026-02-15T09:00:00:Z","depth":"4","parameterNumber":2,"parameterNumberName":"U-component_of_CURRENTS"},"data":[0,0,0,0,0,0,0,0,0,0,0,0,0,0,0,0,0,0,0,0,0,0,0,0,0,0,0,0,0,0,0,0,0,0,0,0,0,0,0,0,0,0,0,0,0,0,0,0,0,0,0,0,0,0,0,0,0,0,0.1315,0.1315,0,0.1378,0.1378,0.1379,0.1426,0.1427,0.1427,0.1428,0.1487,0.1488,0.1489,0,0,0,0,0,0,0,0,0,0,0,0,0,0.1223,0.1225,0.1314,0.1315,0.1316,0.1378,0.1378,0.1379,0.1426,0.1427,0.1427,0.1428,0.1486,0.1487,0.1489,0,0,0,0,0,0,0,0,0,0,0,0,0,0.1271,0.1225,0.1314,0.1348,0.1352,0.1378,0.1378,0.1379,0.1426,0.1427,0.1427,0.1428,0.1486,0.1487,0.1489,0.1482,0,0,0.1494,0.1494,0,0,0,0,0,0,0,0,0.1268,0.1274,0.1342,0.1346,0.135,0.1396,0.1368,0.1414,0.1426,0.1396,0.1428,0.1429,0.1456,0.146,0.1468,0.1484,0.1487,0.1494,0.1495,0.1495,0.1496,0,0,0,0,0,0,0,0.1265,0.1271,0.1338,0.1343,0.1348,0.1357,0.1364,0.1377,0.1419,0.1399,0.1403,0.1412,0.1459,0.1467,0.147,0.1488,0.1494,0.1495,0.1496,0.1497,0.1581,0.1582,0,0,0,0,0,0,0.126,0.1268,0.1336,0.134,0.1312,0.1358,0.1366,0.1379,0.1419,0.1427,0.1411,0.1414,0.1463,0.1468,0.1472,0.1543,0.1495,0.1497,0.1498,0.1579,0.1581,0.1582,0,0,0,0,0,0,0.1258,0.1266,0.1333,0.1307,0.1316,0.1359,0.1373,0.138,0.1418,0.1429,0.1437,0.1445,0.1464,0.147,0.1511,0.1542,0.1498,0.1499,0.1578,0.158,0.1582,0.1634,0,0,0,0,0,0,0.1255,0.1264,0.1285,0.1306,0.1318,0.1367,0.1373,0.1381,0.1421,0.1426,0.146,0.1465,0.1465,0.1509,0.1513,0.1544,0.15,0.1576,0.1579,0.1581,0.1631,0.1638,0.1643,0,0,0,0,0,0.1251,0.1272,0.1286,0.1295,0.134,0.1368,0.1375,0.1406,0.1422,0.1443,0.1469,0.1465,0.1527,0.1512,0.1516,0.1548,0.1575,0.1578,0.1581,0.1628,0.1636,0.1643,0,0,0,0,0,0,0.1244,0.1279,0.1295,0.1327,0.1355,0.1377,0.1405,0.1422,0.1459,0.1473,0.1481,0.1488,0.1535,0.1533,0.1516,0.1579,0.1551,0.1554,0.1585,0.1593,0.1599,0.1601,0.1502,0,0,0,0,0,0.1251,0.128,0.1308,0.1337,0.1354,0.1384,0.1405,0.1427,0.1455,0.1474,0.1497,0.1522,0.1545,0.1564,0.1581,0.1615,0.1616,0.1638,0.1644,0.165,0.1654,0.1679,0.1688,0.1592,0.1592,0.1592,0,0,0.1257,0.1281,0.1299,0.1339,0.1365,0.1394,0.14,0.1442,0.1471,0.1473,0.153,0.1547,0.1559,0.16,0.1621,0.1607,0.1681,0.1653,0.1658,0.1659,0.1683,0.1693,0.1701,0.1594,0.1593,0.1593,0,0,0.1272,0.1306,0.1332,0.1358,0.1404,0.1421,0.1439,0.1478,0.1508,0.1554,0.1565,0.1603,0.1639,0.1654,0.1664,0.1715,0.1713,0.1726,0.1762,0.1787,0.1795,0.1802,0.1826,0.1835,0.173,0.173,0.173,0,0.128,0.1316,0.1344,0.1374,0.1402,0.1436,0.1468,0.1498,0.1548,0.1575,0.1582,0.1652,0.1663,0.1709,0.173,0.173,0.1745,0.1732,0.1795,0.1802,0.1809,0.1831,0.184,0.1733,0.1733,0.1732,0.1732,0,0.1305,0.1345,0.1365,0.1414,0.1445,0.1482,0.1521,0.1564,0.1602,0.1629,0.1695,0.1715,0.1757,0.1767,0.1766,0.1821,0.1818,0.18,0.1775,0.1822,0.1842,0.1851,0.1737,0.1736,0.1735,0.1734,0,0,0.1292,0.1367,0.1378,0.1411,0.1473,0.1499,0.1557,0.1612,0.1656,0.1707,0.1763,0.1806,0.1827,0.184,0.1849,0.1871,0.193,0.1862,0.1862,0.1884,0.1995,0.1894,0.1893,0.1928,0.1929,0.1931,0.1995,0,0.1307,0.1365,0.1402,0.1465,0.1498,0.155,0.1598,0.1654,0.1705,0.1767,0.1803,0.1859,0.1852,0.1885,0.1908,0.1926,0.1953,0.1914,0.1947,0.1948,0.1851,0.1899,0.1935,0.2001,0.2003,0.2004,0.2005,0,0.1315,0.1356,0.1417,0.1496,0.1517,0.1561,0.1649,0.1697,0.178,0.1823,0.1885,0.1917,0.1977,0.1956,0.2016,0.1997,0.2006,0.2009,0.2011,0.1902,0.1862,0.1942,0.202,0.2019,0.2017,0.2016,0.2016,0,0.1283,0.1366,0.1418,0.1445,0.1535,0.1581,0.1635,0.1719,0.1776,0.1869,0.1924,0.1985,0.2038,0.2056,0.208,0.206,0.2134,0.2099,0.2016,0.201,0.2058,0.2049,0.2137,0.2137,0.2137,0.2137,0.2137,0,0.127,0.1316,0.1413,0.144,0.1509,0.1577,0.1658,0.172,0.182,0.1882,0.1957,0.2012,0.2068,0.2117,0.2112,0.2096,0.2165,0.2032,0.202,0.208,0.2073,0.2064,0.2055,0.2139,0.2139,0.2138,0.2138,0,0.1223,0.1288,0.1352,0.1457,0.1496,0.1546,0.1674,0.1724,0.1831,0.1917,0.1956,0.2063,0.2116,0.2159,0.2197,0.2136,0.2127,0.2104,0.2185,0.2176,0.1978,0.1971,0.2008,0.2005,0.2002,0.2,0.1998,0,0.12,0.123,0.1352,0.1392,0.1445,0.1535,0.1591,0.1714,0.1768,0.1927,0.1954,0.2065,0.2115,0.2092,0.2139,0.2133,0.2104,0.2089,0.2008,0.198,0.1966,0.1963,0.1959,0.1994,0.1993,0.1993,0.1992,0,0.1154,0.1209,0.1261,0.1345,0.1414,0.1485,0.1576,0.1613,0.1744,0.186,0.1909,0.1941,0.2003,0.202,0.2042,0.2028,0.2086,0.2061,0.2065,0.1989,0.1964,0.1952,0.1951,0.1983,0.1984,0.1985,0.1986,0,0.1119,0.1142,0.1217,0.1281,0.1362,0.1404,0.1468,0.1531,0.1604,0.1769,0.178,0.1887,0.1984,0.1969,0.1984,0.1971,0.1929,0.1851,0.1865,0.1875,0.18,0.1748,0.1698,0,0,0,0,0,0.1073,0.1091,0.1147,0.1208,0.1283,0.1333,0.1441,0.1504,0.1632,0.1624,0.17,0.1744,0.1776,0.1834,0.1791,0.1928,0.1938,0.187,0.1856,0.1934,0.1944,0.1867,0,0,0,0,0,0,0.1041,0.1089,0.1115,0.1133,0.116,0.1231,0.1296,0.1385,0.139,0.1521,0.1546,0.1643,0.1698,0.1778,0.1757,0.1774,0.1732,0.194,0.1936,0.1928,0.1937,0.1946,0.187,0,0,0,0,0]},{"header":{"parameterUnit":"m.s-1","parameterCategory":2,"la1":30.2991,"la2":30.254,"lo1":-89.0895,"lo2":-89.0444,"dy":0.0017,"dx":0.0017,"nx":28,"ny":28,"refTime":"2026-02-15T09:00:00:Z","depth":"4","parameterNumber":3,"parameterNumberName":"V-component_of_CURRENTS"},"data":[0,0,0,0,0,0,0,0,0,0,0,0,0,0,0,0,0,0,0,0,0,0,0,0,0,0,0,0,0,0,0,0,0,0,0,0,0,0,0,0,0,0,0,0,0,0,0,0,0,0,0,0,0,0,0,0,0,0,0.0084,0.0083,0,0.0042,0.0041,0.0041,0.001,0.0009,0.0009,0.0009,-0.0042,-0.0043,-0.0044,0,0,0,0,0,0,0,0,0,0,0,0,0,0.0104,0.0104,0.0084,0.0083,0.0083,0.0042,0.0041,0.0041,0.001,0.0009,0.0009,0.0009,-0.0042,-0.0043,-0.0045,0,0,0,0,0,0,0,0,0,0,0,0,0,0.0081,0.0104,0.0084,0.0063,0.0061,0.0042,0.0041,0.004,0.001,0.0009,0.0009,0.0009,-0.0041,-0.0043,-0.0045,-0.0051,0,0,-0.005,-0.0051,0,0,0,0,0,0,0,0,0.0082,0.008,0.0067,0.0065,0.0062,0.0032,0.003,0.001,0.001,0.0028,0.0009,0.0009,-0.0017,-0.0021,-0.003,-0.0053,-0.0055,-0.005,-0.0051,-0.0052,-0.0053,0,0,0,0,0,0,0,0.0084,0.0081,0.0066,0.0066,0.0063,0.0045,0.0042,0.0025,0.0006,0.0026,0.0024,0.0021,-0.0019,-0.0028,-0.0031,-0.0056,-0.005,-0.0052,-0.0053,-0.0054,-0.0096,-0.0096,0,0,0,0,0,0,0.0093,0.0083,0.0067,0.0065,0.0073,0.0045,0.0041,0.0041,0.0007,0.0002,0.0022,0.002,-0.0025,-0.0029,-0.0033,-0.0043,-0.0052,-0.0054,-0.0055,-0.0096,-0.0096,-0.0096,0,0,0,0,0,0,0.0094,0.0092,0.0069,0.0074,0.0069,0.0045,0.0045,0.004,0.0031,0.0003,-0.0002,0.0017,-0.0025,-0.0031,-0.0046,-0.0045,-0.0055,-0.0056,-0.0096,-0.0096,-0.0096,-0.0061,0,0,0,0,0,0,0.0095,0.0093,0.0096,0.0074,0.007,0.0062,0.0045,0.004,0.003,0.0027,-0.0002,-0.0007,-0.0026,-0.0043,-0.0047,-0.0047,-0.0058,-0.0096,-0.0096,-0.0096,-0.0062,-0.006,-0.0058,0,0,0,0,0,0.0096,0.0103,0.0097,0.0095,0.0075,0.0062,0.0058,0.0039,0.003,0.0029,0.0008,-0.0006,-0.0047,-0.0044,-0.005,-0.005,-0.0096,-0.0096,-0.0096,-0.0063,-0.006,-0.0058,0,0,0,0,0,0,0.0113,0.01,0.0093,0.0096,0.0082,0.0057,0.0056,0.0042,0.0024,0.0023,-0.0005,-0.0011,-0.0025,-0.0042,-0.0038,-0.0064,-0.0075,-0.0076,-0.0048,-0.0045,-0.0043,-0.0032,-0.0059,0,0,0,0,0,0.0119,0.0122,0.0104,0.0107,0.0102,0.008,0.0072,0.006,0.0041,0.0033,0.0012,-0.0011,-0.003,-0.004,-0.006,-0.0071,-0.0093,-0.0076,-0.0074,-0.0072,-0.0067,-0.0101,-0.0101,-0.0097,-0.0097,-0.0097,0,0,0.0128,0.0121,0.0123,0.0111,0.0099,0.0098,0.0074,0.0068,0.0065,0.0031,0.0022,-0.0003,-0.0032,-0.0045,-0.0053,-0.0059,-0.0085,-0.0072,-0.007,-0.0066,-0.0101,-0.0101,-0.0102,-0.0097,-0.0097,-0.0097,0,0,0.0147,0.0139,0.0149,0.0141,0.0128,0.0114,0.0114,0.0092,0.008,0.0068,0.0042,0.0019,-0.0009,-0.0031,-0.0046,-0.0044,-0.0073,-0.0051,-0.0032,-0.0065,-0.0065,-0.0066,-0.0095,-0.0099,-0.0051,-0.0051,-0.005,0,0.0158,0.0167,0.0149,0.0155,0.0154,0.0124,0.0134,0.0117,0.0092,0.0085,0.0072,0.0024,-0.0002,-0.0023,-0.0025,-0.0039,-0.0061,-0.0037,-0.0061,-0.0063,-0.0064,-0.0094,-0.0098,-0.0049,-0.0049,-0.0049,-0.0049,0,0.0182,0.019,0.0195,0.0194,0.0189,0.0192,0.0171,0.0161,0.0143,0.0124,0.0099,0.0059,0.0032,0.0015,-0.0004,-0.0026,-0.004,-0.0054,-0.0065,-0.0062,-0.0094,-0.0099,-0.0046,-0.0047,-0.0048,-0.0048,0,0,0.0206,0.0213,0.0215,0.0226,0.0212,0.0213,0.0208,0.0196,0.0195,0.0159,0.0151,0.0106,0.008,0.0061,0.0027,-0.0005,-0.0038,-0.003,-0.0033,-0.0054,-0.0109,-0.0114,-0.0121,-0.0056,-0.0057,-0.0057,-0.0128,0,0.0232,0.0259,0.0251,0.0275,0.0288,0.0264,0.0264,0.0248,0.0225,0.0208,0.0157,0.0138,0.0098,0.0085,0.0046,-0.0016,-0.005,-0.0017,-0.0113,-0.0116,-0.0117,-0.0126,-0.006,-0.0132,-0.0133,-0.0134,-0.0134,0,0.0259,0.0275,0.0307,0.0323,0.0327,0.0333,0.033,0.0326,0.029,0.0273,0.0236,0.0197,0.0144,0.0111,0.0007,0.0029,-0.0034,-0.0085,-0.0089,-0.0109,-0.013,-0.0137,-0.0144,-0.0144,-0.0143,-0.0142,-0.0142,0,0.0289,0.0315,0.0345,0.0349,0.0359,0.0368,0.0367,0.0346,0.0353,0.0313,0.0312,0.0237,0.0205,0.0115,0.0007,0.0006,-0.011,-0.0125,-0.0189,-0.0191,-0.018,-0.0178,-0.0196,-0.0196,-0.0196,-0.0195,-0.0195,0,0.0319,0.0344,0.0363,0.0379,0.0417,0.0406,0.0434,0.0419,0.0409,0.042,0.0349,0.0336,0.0205,0.0123,0.0021,-0.0101,-0.0102,-0.0187,-0.021,-0.0164,-0.016,-0.0184,-0.0181,-0.0198,-0.0197,-0.0197,-0.0196,0,0.0347,0.0358,0.0397,0.0421,0.0434,0.0458,0.0489,0.0506,0.0487,0.0498,0.0492,0.0408,0.0295,0.0162,0.0008,-0.0075,-0.0194,-0.0236,-0.0174,-0.0192,-0.0256,-0.0251,-0.0314,-0.0315,-0.0315,-0.0316,-0.0316,0,0.0362,0.0386,0.0433,0.0462,0.0477,0.0515,0.0542,0.0545,0.0566,0.0542,0.055,0.0451,0.0378,0.0165,0.0012,-0.0187,-0.0215,-0.0274,-0.027,-0.0253,-0.0269,-0.0263,-0.0257,-0.0317,-0.0317,-0.0318,-0.0318,0,0.0391,0.041,0.0443,0.0506,0.0546,0.0596,0.0634,0.0659,0.0657,0.0647,0.0603,0.0486,0.0353,0.0173,0.0016,-0.0126,-0.0236,-0.0282,-0.0281,-0.0278,-0.0258,-0.0272,-0.0266,-0.032,-0.032,-0.032,-0.0319,0,0.0414,0.0443,0.049,0.0545,0.0604,0.0655,0.0673,0.0693,0.0711,0.0683,0.0664,0.0514,0.0424,0.0203,0.0059,-0.0085,-0.0122,-0.0163,-0.017,-0.0169,-0.0111,-0.0063,-0.0085,0,0,0,0,0,0.0432,0.0467,0.0523,0.0583,0.0643,0.0679,0.0727,0.0737,0.0739,0.0721,0.0697,0.0573,0.0348,0.0245,0.0102,0.0034,-0.0155,-0.0139,-0.0206,-0.0333,-0.033,-0.0288,0,0,0,0,0,0,0.0442,0.0497,0.0526,0.0607,0.0654,0.0722,0.0755,0.0757,0.0746,0.0724,0.0609,0.0543,0.0324,0.0436,0.0103,0.0056,-0.0005,-0.0247,-0.025,-0.0334,-0.0332,-0.033,-0.0286,0,0,0,0,0]}]]